Total_Precipitation_Accumulation
0.05 0.07 0.12 0.11 0.10 0.18 0.19 0.20 0.29 0.34 0.29 0.35 0.50 0.65 0.89 1.08 1.35 1.62 1.60 1.55 1.62 1.91 2.22 2.43 2.79 3.16 3.40 3.57 3.68 4.00 4.22 3.97 3.53 3.16 2.71 2.57 2.49 2.27 2.07 1.97 1.82 2.00 1.96 2.19
0.04 0.06 0.07 0.06 0.06 0.11 0.14 0.16 0.28 0.35 0.30 0.34 0.50 0.83 1.02 1.09 1.14 1.28 1.40 1.32 1.43 1.76 1.87 1.93 2.06 2.37 2.53 2.78 3.07 3.42 3.67 3.50 2.94 2.73 2.57 2.47 2.42 2.24 2.24 2.15 2.16 1.93 1.93 2.16
0.03 0.06 0.06 0.05 0.05 0.07 0.13 0.15 0.20 0.29 0.34 0.44 0.56 1.18 1.28 1.08 1.01 0.94 1.11 1.17 1.17 1.37 1.58 1.66 1.68 1.77 2.07 2.65 2.87 2.76 2.99 3.16 2.88 2.76 2.68 2.61 2.58 2.40 2.49 2.45 2.35 1.97 1.83 1.84
0.03 0.03 0.03 0.05 0.05 0.06 0.13 0.12 0.12 0.17 0.26 0.57 0.66 1.27 1.36 1.14 1.15 0.95 0.91 0.97 0.92 0.91 1.16 1.35 1.34 1.43 1.66 1.96 2.24 2.59 2.89 2.97 2.86 2.71 2.48 2.36 2.20 2.14 2.17 2.18 2.19 2.07 1.95 1.82
0.03 0.02 0.02 0.04 0.05 0.05 0.07 0.07 0.10 0.16 0.27 0.51 0.63 1.04 1.29 1.13 1.32 1.06 0.74 0.63 0.58 0.59 0.73 0.91 1.06 1.19 1.27 1.41 1.80 2.36 2.81 3.02 2.90 2.56 2.40 2.44 2.27 2.21 2.18 2.10 2.30 2.16 2.00 1.84
0.03 0.03 0.03 0.03 0.04 0.04 0.04 0.07 0.18 0.32 0.48 0.87 0.83 0.92 1.22 1.02 0.86 0.69 0.54 0.43 0.44 0.51 0.54 0.62 0.76 0.99 1.13 1.21 1.47 1.91 2.32 2.55 2.61 2.48 2.37 2.43 2.45 2.40 2.26 2.11 2.12 1.97 1.93 1.88
0.08 0.07 0.05 0.03 0.03 0.04 0.04 0.09 0.37 0.63 0.88 1.03 0.67 0.88 1.23 0.81 0.65 0.55 0.48 0.43 0.39 0.39 0.52 0.64 0.73 0.87 0.90 0.95 1.18 1.49 1.71 1.91 2.13 2.28 2.34 2.30 2.43 2.45 2.23 2.02 2.03 2.00 1.86 1.88
0.11 0.17 0.09 0.05 0.05 0.05 0.05 0.08 0.21 0.37 0.50 0.64 0.68 1.33 1.24 0.65 0.51 0.43 0.38 0.39 0.38 0.44 0.52 0.64 0.78 0.86 0.80 0.84 1.04 1.24 1.44 1.68 1.95 2.11 2.18 2.16 2.13 2.04 1.99 2.10 2.00 1.97 1.92 1.87
0.05 0.07 0.06 0.05 0.04 0.05 0.06 0.07 0.10 0.17 0.22 0.47 0.81 1.02 0.77 0.43 0.41 0.43 0.39 0.42 0.45 0.54 0.65 0.73 0.88 0.92 0.81 0.85 1.03 1.15 1.34 1.54 1.68 1.94 2.10 2.03 2.01 1.88 1.86 1.91 1.87 1.81 1.94 1.88
0.03 0.04 0.04 0.04 0.04 0.05 0.06 0.06 0.09 0.12 0.18 0.36 0.66 0.91 0.97 0.70 0.53 0.45 0.44 0.48 0.51 0.63 0.82 0.93 0.93 0.95 0.90 0.91 1.04 1.13 1.30 1.42 1.45 1.60 1.69 1.58 1.77 1.81 1.92 1.90 1.80 1.73 1.74 1.78
0.03 0.03 0.03 0.04 0.05 0.08 0.08 0.06 0.07 0.09 0.11 0.22 0.52 0.71 0.70 0.68 0.62 0.47 0.45 0.54 0.62 0.65 0.82 0.94 0.90 0.89 0.86 0.91 0.99 1.03 1.18 1.30 1.34 1.48 1.56 1.62 1.71 1.77 1.81 1.83 1.80 1.80 1.81 1.85
0.03 0.03 0.03 0.06 0.07 0.07 0.10 0.11 0.11 0.10 0.09 0.15 0.26 0.41 0.40 0.47 0.55 0.47 0.50 0.63 0.72 0.58 0.64 0.86 0.93 0.96 0.77 0.83 0.90 0.96 1.08 1.22 1.28 1.46 1.59 1.65 1.82 1.86 1.78 1.79 1.97 1.97 1.95 1.94
0.03 0.03 0.05 0.11 0.17 0.12 0.09 0.08 0.11 0.11 0.10 0.11 0.18 0.35 0.35 0.39 0.50 0.49 0.56 0.68 0.69 0.67 0.67 0.82 0.91 0.84 0.76 0.78 0.85 0.90 1.00 1.13 1.24 1.38 1.54 1.74 1.82 1.86 1.97 2.11 2.27 2.31 2.23 2.18
0.03 0.03 0.04 0.12 0.20 0.24 0.18 0.11 0.10 0.10 0.10 0.10 0.14 0.27 0.34 0.45 0.53 0.53 0.56 0.72 0.71 0.65 0.64 0.65 0.82 0.87 0.79 0.77 0.80 0.85 0.99 1.13 1.30 1.56 1.74 1.87 2.04 2.16 2.22 2.18 2.26 2.30 2.32 2.34
0.03 0.02 0.03 0.05 0.09 0.14 0.14 0.11 0.10 0.09 0.09 0.11 0.15 0.25 0.36 0.45 0.54 0.60 0.61 0.61 0.63 0.59 0.62 0.76 0.89 1.05 1.02 0.94 0.88 0.92 1.15 1.37 1.59 1.86 1.95 1.99 2.07 2.18 2.33 2.46 2.48 2.47 2.46 2.41
0.05 0.04 0.05 0.06 0.08 0.10 0.10 0.10 0.09 0.08 0.08 0.09 0.14 0.26 0.39 0.51 0.56 0.52 0.55 0.53 0.57 0.66 0.73 0.88 1.03 1.17 1.26 1.28 1.26 1.29 1.45 1.71 2.02 2.32 2.44 2.56 2.62 2.69 2.75 2.79 2.82 2.87 2.82 2.76
0.14 0.15 0.14 0.13 0.13 0.14 0.12 0.12 0.12 0.11 0.12 0.14 0.20 0.29 0.44 0.59 0.57 0.63 0.66 0.63 0.72 0.79 0.88 1.00 1.11 1.20 1.34 1.37 1.45 1.63 1.81 2.05 2.30 2.48 2.59 2.70 2.79 2.92 3.03 3.05 3.07 2.96 2.90 2.83
0.34 0.31 0.25 0.20 0.23 0.27 0.17 0.21 0.23 0.25 0.27 0.31 0.35 0.41 0.50 0.61 0.62 0.67 0.71 0.70 0.72 0.85 1.02 1.07 1.13 1.26 1.35 1.47 1.62 1.79 1.90 2.07 2.41 2.63 2.72 2.76 2.79 2.87 3.04 3.19 3.12 2.99 2.97 2.91
0.43 0.50 0.45 0.33 0.30 0.32 0.33 0.30 0.31 0.40 0.52 0.49 0.64 0.71 0.66 0.69 0.75 0.77 0.77 0.92 0.94 0.92 1.00 1.08 1.20 1.30 1.44 1.51 1.56 1.57 1.68 1.89 2.12 2.35 2.52 2.54 2.68 2.85 2.94 2.97 2.99 3.07 3.05 2.85
0.35 0.40 0.47 0.48 0.50 0.50 0.50 0.49 0.39 0.44 0.79 0.79 0.88 0.98 0.92 0.95 1.17 1.09 0.83 0.82 0.94 1.02 1.04 1.14 1.30 1.39 1.39 1.42 1.45 1.53 1.68 1.91 2.11 2.32 2.51 2.68 2.81 2.95 2.98 3.03 3.13 3.16 3.12 3.07
0.53 0.55 0.54 0.55 0.60 0.60 0.52 0.48 0.49 0.84 1.12 1.10 1.17 1.21 1.14 1.18 1.23 1.16 0.99 0.91 0.93 0.99 1.04 1.13 1.28 1.44 1.46 1.45 1.62 1.79 1.92 2.08 2.25 2.37 2.45 2.59 2.77 3.00 3.24 3.41 3.32 3.29 3.24 3.15
0.77 0.77 0.75 0.78 0.97 1.09 0.80 0.72 0.95 1.14 0.91 0.97 1.15 1.36 1.39 1.32 1.24 1.17 1.08 1.01 0.96 0.91 0.97 1.15 1.27 1.40 1.55 1.66 1.82 1.99 2.02 2.09 2.29 2.49 2.57 2.62 2.81 2.88 3.02 3.27 3.28 3.20 3.17 3.08
0.90 1.00 1.09 1.13 1.29 1.17 0.99 1.01 0.95 1.04 1.21 1.27 1.37 1.57 1.60 1.45 1.31 1.31 1.24 1.11 1.03 1.00 1.05 1.16 1.28 1.41 1.52 1.71 1.90 2.07 2.16 2.23 2.32 2.45 2.61 2.77 2.87 2.92 3.01 3.18 3.24 3.22 3.13 2.99
0.93 0.81 1.03 1.34 1.48 1.31 1.14 1.11 1.06 1.12 1.32 1.40 1.38 1.42 1.46 1.42 1.36 1.47 1.47 1.31 1.27 1.27 1.26 1.30 1.38 1.46 1.54 1.64 1.84 2.05 2.18 2.24 2.35 2.42 2.47 2.62 2.75 2.87 3.02 3.04 2.91 2.80 2.66 2.58
0.99 1.00 1.19 1.60 1.79 1.72 1.51 1.38 1.29 1.31 1.28 1.36 1.31 1.33 1.34 1.38 1.38 1.44 1.56 1.59 1.51 1.39 1.33 1.38 1.46 1.56 1.59 1.63 1.72 1.96 2.17 2.27 2.32 2.44 2.50 2.48 2.48 2.56 2.72 2.79 2.75 2.62 2.44 2.30
1.09 1.29 1.62 1.99 1.97 2.08 1.94 1.61 1.43 1.50 1.47 1.41 1.36 1.43 1.48 1.46 1.42 1.46 1.60 1.64 1.61 1.49 1.44 1.47 1.51 1.54 1.57 1.67 1.79 1.90 2.17 2.45 2.53 2.52 2.39 2.30 2.21 2.20 2.25 2.26 2.30 2.40 2.27 2.24